RH
11 10 11 12 19 22 24 26 42 60 58 72 78 68 64 70 67 71 71 64 45 45 44 57 58 60 62 65 66 62 59 59 64 65 64 63 62 59 65 62 64 64 65 65
15 15 12 9 11 15 16 20 42 58 60 70 71 71 60 66 59 62 66 67 55 49 45 49 57 64 66 65 67 64 53 66 62 59 60 60 60 59 58 60 63 63 66 66
19 13 10 9 9 9 11 16 54 58 67 66 67 74 67 64 65 58 58 66 55 50 49 49 56 66 69 69 68 67 59 68 62 62 63 61 65 60 58 57 62 64 67 65
18 14 12 11 10 10 12 13 30 64 78 82 59 77 51 68 72 64 55 65 60 56 43 51 57 66 68 66 68 67 69 68 68 65 61 58 61 62 56 60 60 64 63 66
18 16 14 12 11 11 14 15 50 61 74 41 52 59 51 71 80 69 60 58 63 48 46 54 60 62 63 67 66 61 63 60 61 63 64 60 63 60 60 60 61 59 66 68
16 13 12 14 13 14 13 15 23 32 38 38 30 55 41 76 72 65 60 52 60 52 57 51 57 58 60 65 68 64 60 60 59 65 64 64 60 58 60 59 61 65 63 64
16 14 12 11 12 12 16 21 29 27 33 35 33 52 42 36 51 60 65 57 53 53 53 59 59 60 60 64 69 70 66 64 59 63 61 65 61 61 61 59 57 61 60 66
22 21 14 11 12 15 14 18 29 26 35 31 31 40 53 48 53 62 58 61 57 63 52 60 55 65 63 63 69 71 69 69 61 66 67 66 64 61 58 61 61 58 58 58
26 23 15 12 12 12 15 19 17 26 32 34 39 46 40 50 58 63 65 61 61 63 59 52 55 56 69 63 64 71 70 69 62 66 65 66 64 60 60 61 62 62 59 59
20 23 18 11 10 11 12 19 30 43 34 39 58 60 57 50 54 51 58 62 65 65 68 59 63 59 64 65 53 61 69 68 62 65 65 65 65 64 62 63 61 60 61 62
21 23 19 14 15 15 19 21 37 38 47 51 64 63 56 48 43 46 59 73 76 67 67 73 73 62 62 66 64 64 68 72 67 70 73 70 67 65 66 65 63 57 59 63
20 27 25 18 18 15 18 19 31 32 30 56 51 48 40 43 47 56 68 72 76 85 86 84 80 76 69 65 66 68 68 70 64 63 73 71 68 66 64 67 65 58 61 63
22 30 30 24 20 14 15 17 30 40 50 58 54 49 45 60 58 59 77 74 70 71 83 85 82 82 78 75 65 65 66 71 75 78 79 80 75 70 64 65 66 63 64 68
33 34 27 28 23 18 14 18 19 34 42 47 48 42 48 65 66 66 85 80 70 82 82 82 89 88 78 74 71 63 66 70 78 74 70 82 81 76 69 65 63 68 70 68
18 20 24 23 19 16 18 20 22 20 23 29 30 52 44 56 72 81 87 89 90 86 85 86 87 88 83 80 80 85 79 71 73 74 82 90 81 76 76 74 70 66 71 69
19 22 18 18 18 24 23 26 31 30 36 38 43 37 49 60 59 81 86 93 92 90 89 93 94 94 92 89 85 80 79 75 82 95 97 94 85 84 78 79 78 73 70 70
21 33 34 28 33 26 31 26 29 34 32 35 35 33 72 73 72 72 89 92 93 89 89 93 96 99 99 98 100 97 97 96 98 100 97 90 92 89 86 86 85 79 72 68
33 42 43 41 32 37 31 31 28 34 47 52 36 46 61 71 80 89 92 90 94 92 89 92 95 97 98 95 99 99 99 100 100 100 100 100 93 89 77 78 75 77 74 67
28 39 45 36 38 31 26 35 33 30 36 57 49 53 81 93 94 90 94 90 88 90 90 92 93 95 97 99 99 94 96 99 100 100 100 100 100 91 85 86 72 73 83 74
32 32 35 52 34 38 32 30 35 36 52 54 60 60 83 88 76 77 96 93 95 91 92 90 95 93 95 97 99 97 99 99 100 100 100 99 92 97 92 74 73 94 96 85
36 43 37 54 40 39 36 39 39 51 49 52 62 63 82 88 77 80 98 93 92 94 95 92 93 99 100 99 99 98 97 100 100 99 100 100 100 95 83 97 100 100 99 100
37 46 45 55 53 39 44 46 50 51 64 61 69 69 78 88 98 94 91 93 92 97 96 96 97 99 99 99 98 99 99 100 97 100 100 100 100 99 100 100 100 100 100 100
38 41 50 46 51 50 53 46 46 66 64 70 72 81 88 90 91 93 97 94 93 94 96 98 100 100 99 99 100 98 87 97 97 100 99 100 100 100 100 99 100 99 100 100
52 52 56 49 48 51 58 63 65 71 67 74 69 83 89 95 95 97 96 94 93 89 89 91 100 100 100 100 100 100 90 95 100 100 100 99 98 98 100 100 99 100 100 100
58 46 62 87 87 76 76 79 72 72 78 87 87 83 90 93 95 94 95 93 83 80 80 86 91 99 100 100 100 99 96 83 98 100 100 100 100 98 99 99 100 100 100 98
57 48 52 56 72 64 71 76 80 80 76 93 95 96 85 80 94 88 90 79 81 78 72 74 84 97 100 100 100 100 100 86 89 98 99 100 99 99 98 99 100 100 97 94
Wind_Speed
3 3 7 10 6 3 2 3 6 7 8 6 11 6 8 10 6 8 7 6 11 14 12 23 27 28 26 28 32 32 32 28 25 21 20 15 16 18 18 15 15 15 13 12
5 5 11 2 4 4 5 5 4 2 8 5 4 12 3 8 9 8 8 7 7 10 14 19 26 28 30 33 34 33 34 30 28 24 22 17 17 22 18 17 16 14 13 12
6 7 4 5 5 4 4 5 6 7 4 2 4 7 6 5 5 6 6 4 5 11 17 15 23 28 30 31 35 35 36 33 30 27 24 16 18 17 16 17 17 16 13 12
6 5 5 5 7 5 8 8 11 7 6 4 6 4 6 6 8 8 11 11 9 8 15 16 22 27 30 34 35 36 36 34 31 28 26 24 22 17 18 18 18 18 15 13
7 5 4 6 11 8 9 6 11 8 7 3 0 3 6 2 6 12 15 13 12 12 13 18 22 30 33 31 37 39 37 35 32 30 27 24 23 21 18 18 21 18 17 15
8 4 4 9 5 8 6 7 9 6 4 2 6 6 5 4 6 5 12 14 12 11 9 15 26 28 28 30 31 36 38 35 34 31 28 27 24 22 20 18 16 18 18 17
4 5 4 4 4 4 7 7 3 2 2 6 2 4 8 6 6 8 11 16 15 13 11 12 16 22 24 27 29 33 37 37 36 32 30 28 25 23 22 22 20 21 21 20
4 5 6 3 5 7 2 7 6 5 4 4 1 2 5 6 7 5 3 8 8 9 12 12 18 25 25 27 30 32 36 35 39 36 34 30 27 26 22 21 19 24 23 22
5 6 4 5 5 8 3 2 3 7 1 2 2 3 6 7 8 8 6 5 7 7 11 14 16 26 29 29 27 32 36 36 41 40 36 34 29 27 28 22 20 22 24 24
5 2 3 2 5 4 7 8 4 3 2 3 3 2 4 3 5 7 8 3 6 8 9 8 10 22 28 30 36 38 34 37 40 41 40 38 34 30 28 27 22 23 23 22
6 4 5 3 3 5 2 2 6 5 4 5 1 5 5 6 4 1 6 6 4 6 6 8 8 16 24 29 32 33 31 29 35 37 38 39 39 36 32 31 29 25 24 21
5 5 3 3 2 3 2 3 4 5 5 1 3 5 4 6 6 5 1 4 4 8 6 5 5 4 9 22 26 25 30 33 39 34 36 39 39 41 39 36 32 28 26 25
7 2 3 6 6 5 6 1 4 5 3 5 6 5 1 4 4 6 6 2 3 6 6 6 6 8 11 11 25 29 28 31 27 25 25 28 35 39 42 41 37 31 29 24
9 4 6 6 6 4 1 2 3 5 3 4 5 4 3 2 4 2 5 2 3 4 4 5 6 7 13 14 21 29 30 30 30 28 30 35 35 38 39 40 38 33 28 25
5 4 4 3 3 2 2 3 2 5 5 5 4 8 5 7 7 4 2 4 5 3 1 1 0 3 6 10 12 14 24 34 35 33 37 32 38 39 37 36 37 37 33 31
4 1 2 1 1 2 2 2 7 4 5 5 5 1 4 4 2 4 5 5 5 4 4 0 3 4 2 6 9 13 21 28 30 28 32 34 35 38 37 35 35 37 38 36
5 6 3 1 2 4 3 3 4 3 2 5 3 6 5 6 8 4 3 2 2 2 3 4 4 4 7 7 6 8 10 19 24 29 32 34 30 31 27 29 30 32 37 37
7 5 3 3 2 1 6 4 3 7 3 1 2 4 5 4 3 5 5 6 5 4 2 3 4 9 12 11 9 10 11 16 23 25 26 35 38 28 22 14 18 29 30 33
5 6 3 5 4 4 1 4 5 5 3 3 4 2 4 4 5 6 8 7 6 5 3 4 5 6 10 9 10 12 13 14 21 25 27 28 29 33 30 32 20 22 28 31
7 7 5 3 5 6 7 2 5 4 3 7 6 7 7 6 1 6 8 5 6 9 5 1 4 5 6 8 10 9 12 16 15 23 30 30 34 29 24 26 20 23 25 27
3 4 6 3 3 5 6 4 3 5 7 7 7 7 6 6 5 2 7 5 4 3 5 3 2 6 8 7 4 7 11 16 19 18 30 29 26 20 24 21 23 28 29 26
6 6 4 3 4 4 6 5 6 7 1 5 5 4 5 1 4 6 6 5 4 4 1 2 2 4 5 3 4 7 11 15 18 22 13 22 24 19 20 25 24 26 30 29
3 6 6 6 6 5 6 5 5 6 6 5 4 3 2 4 5 7 6 3 3 4 3 4 5 2 2 1 6 9 12 14 18 18 37 28 26 23 23 24 30 28 28 30
3 2 4 5 3 2 2 3 2 6 5 4 3 6 6 6 7 7 6 4 3 3 1 1 2 3 3 4 8 9 11 13 14 20 28 30 28 28 20 30 26 27 25 28
4 4 5 3 3 2 5 5 2 1 5 8 6 4 6 8 7 6 6 5 4 5 5 7 6 5 6 6 8 9 14 14 14 14 18 25 28 28 26 27 24 26 25 27
3 6 4 4 9 5 6 4 4 5 3 6 6 5 5 5 7 8 6 11 7 6 8 11 11 11 8 8 10 9 14 16 15 14 15 21 22 22 26 25 23 22 22 21
Wind_Direction
356 81 219 217 173 153 147 245 247 231 169 151 221 240 219 166 199 222 207 205 174 177 178 173 176 184 187 194 197 195 192 191 192 184 189 204 210 209 210 211 213 219 215 212
20 241 238 229 178 183 230 252 254 319 161 152 199 251 233 171 205 201 214 202 182 153 166 175 174 176 186 193 201 198 197 195 192 191 195 207 205 208 218 221 221 216 213 213
167 235 105 185 256 205 232 217 203 207 137 206 92 311 257 211 177 172 221 205 212 179 172 177 173 181 184 191 198 202 200 200 196 191 193 196 192 199 221 223 225 217 217 222
226 269 224 215 250 139 266 237 213 149 122 205 144 263 282 207 223 203 208 206 205 199 177 176 181 183 188 197 199 202 203 201 195 188 190 195 197 207 215 218 215 216 222 222
249 291 247 191 226 156 241 241 179 157 148 101 6 32 270 112 245 223 219 209 207 200 179 183 184 189 193 191 198 202 204 202 200 193 194 197 203 213 219 225 221 223 218 219
240 250 204 215 219 170 150 70 41 55 72 335 225 166 282 204 219 246 218 217 204 193 168 187 186 190 192 193 197 199 203 206 204 203 199 204 207 216 222 224 224 225 221 230
315 248 269 192 134 40 76 64 17 29 14 228 186 106 244 272 265 245 213 204 198 189 175 170 182 188 188 193 195 199 203 208 207 207 206 206 208 211 225 225 234 224 223 228
164 308 184 181 168 176 175 146 152 177 204 248 55 226 265 296 312 333 122 153 181 170 192 182 181 186 189 193 195 197 204 206 207 207 206 208 212 215 216 223 235 227 229 232
160 267 305 202 159 134 186 106 195 100 10 49 261 296 330 346 9 35 69 141 185 186 191 197 180 187 187 191 195 201 204 206 207 211 211 212 214 215 219 224 232 229 236 235
194 301 265 88 93 46 150 163 75 11 154 257 304 271 225 317 3 359 346 325 216 189 188 196 183 185 196 191 198 221 210 206 209 212 215 215 215 217 219 219 223 227 229 232
138 119 310 46 74 180 3 111 53 115 134 160 149 266 213 198 230 307 331 350 5 233 186 199 189 185 191 196 211 214 207 202 212 213 215 218 220 219 221 221 222 226 227 231
180 148 139 179 286 316 138 134 121 135 241 135 160 259 269 207 189 131 163 24 60 104 100 86 121 121 192 208 213 208 211 200 215 217 229 221 223 223 224 223 224 222 226 231
182 8 64 349 7 8 68 63 124 121 90 192 139 250 314 315 156 173 144 71 60 116 133 153 150 160 176 195 215 211 214 212 211 211 214 225 223 225 226 228 228 225 223 223
93 115 145 181 192 163 297 355 64 116 119 169 215 208 206 254 231 203 108 173 154 98 121 158 176 197 202 195 199 209 210 211 211 207 218 232 229 226 227 229 229 227 224 221
102 127 155 158 157 191 190 267 201 177 181 156 223 183 195 208 214 239 152 161 151 157 90 57 193 246 228 221 217 215 204 206 209 213 224 226 226 229 228 230 231 226 225 227
26 130 108 104 232 168 217 122 95 86 123 99 124 93 188 238 197 236 225 192 178 175 141 339 359 28 346 266 264 242 235 235 235 216 208 213 229 227 224 227 230 230 231 231
121 135 105 227 340 92 5 237 119 125 87 141 156 223 164 218 229 233 239 267 254 239 119 81 33 17 37 11 314 296 273 250 237 220 213 213 216 209 203 216 223 229 237 235
131 100 86 166 38 162 241 280 160 135 124 274 207 234 219 200 222 180 188 188 221 214 187 81 29 2 349 341 346 331 313 271 236 223 206 199 197 205 202 221 234 228 232 235
130 118 90 137 168 277 280 232 166 168 212 220 191 186 178 146 166 242 205 201 200 180 142 7 12 10 334 334 356 9 1 333 268 244 234 220 212 212 219 212 236 242 227 231
56 71 112 141 145 199 235 232 131 106 277 215 210 211 183 157 193 262 183 184 157 151 135 149 320 320 301 321 337 358 1 350 340 260 239 234 231 223 221 228 228 221 211 206
85 43 147 142 162 282 246 188 115 101 239 193 199 220 173 194 210 170 127 123 131 135 148 167 229 287 299 312 308 12 7 352 349 330 235 221 203 207 223 212 195 189 184 181
150 140 168 103 105 232 170 89 161 212 188 182 204 220 228 246 94 125 123 126 129 123 149 240 225 257 296 311 163 66 30 36 38 30 71 198 178 173 158 158 151 153 155 145
117 173 171 163 205 230 199 178 209 163 167 206 174 166 121 131 161 141 136 126 99 133 195 230 236 211 270 135 143 106 94 70 61 47 70 66 88 121 141 129 121 117 126 128
34 159 100 113 304 239 274 314 261 190 202 130 100 126 155 140 120 105 102 94 99 104 72 213 167 123 108 138 138 143 115 91 75 67 78 88 81 82 84 110 110 112 112 115
193 123 122 71 333 352 303 259 297 60 81 89 107 136 146 121 114 123 127 105 106 96 80 80 85 99 94 118 136 145 125 115 97 78 81 92 98 97 94 88 95 105 111 120
195 161 140 202 200 167 216 176 142 146 128 142 138 131 148 133 144 147 147 138 133 119 100 88 90 87 89 106 116 139 145 137 125 105 100 104 108 107 106 103 102 100 103 111